Home   Weather   Vila Nova de Gaia   Past weeks

Flag for Portugal Past Weather in Vila Nova de Gaia, Portugal — Yesterday and Last 2 Weeks

Now
72 °F

Sunny.


Feels Like: 76 °F
Forecast: 55 / 69 °F
Wind: 6 mph from Northwest

Location: Porto / Pedras Rubras

Current Time: Sep 29, 2016 at 7:55:59 PM

Latest Report: Sep 29, 2016 at 7:00 PM


Visibility: 10 mi

Pressure: 30.12 "Hg

Humidity: 57%

Dew Point: 55 °F

Location of Vila Nova de GaiaLocation

Past Weather in Vila Nova de Gaia — Graph

°F

Vila Nova de Gaia Temperature Yesterday

Maximum temperature yesterday: 86 °F (at 1:30 PM)
Minimum temperature yesterday: 59 °F (at 3:00 AM)
Average temperature yesterday: 71 °F

High & Low Weather Summary for the Past Weeks

 TemperatureHumidityPressure
High86 °F (Sep 28, 1:30 PM)100% (Sep 15, 1:30 AM)30.33 "Hg (Sep 15, 1:30 AM)
Low50 °F (Sep 20, 6:30 AM)37% (Sep 18, 12:30 PM)29.98 "Hg (Sep 20, 2:30 AM)
Average63 °F84%30.15 "Hg
* Reported Sep 14 6:00 PM — Sep 29 6:30 PM, Vila Nova de Gaia, Weather by CustomWeather, © 2016

Note: Actual official high and low records may vary slightly from our data, if they occured in-between our weather recording intervals... More about our weather records

Advertising

Vila Nova de Gaia Weather History for the Previous 24 Hours

Scroll right to see more
 ConditionsComfort  
Time TempWeatherWind HumidityBarometerVisibility
6:30 PM
Thu, Sep 29
73 °FSunny.7 mph50%30.12 "Hg10 mi
6:00 PM75 °FSunny.7 mph47%30.12 "Hg10 mi
5:30 PM75 °FSunny.9 mph44%30.12 "Hg10 mi
5:00 PM77 °FPassing clouds.8 mph44%30.12 "HgN/A
4:30 PM75 °FPassing clouds.8 mph44%30.12 "HgN/A
4:00 PM77 °FPassing clouds.7 mph39%30.15 "HgN/A
3:30 PM77 °FPassing clouds.8 mph44%30.15 "HgN/A
3:00 PM77 °FPassing clouds.8 mph44%30.15 "HgN/A
2:30 PM77 °FPassing clouds.6 mph44%30.18 "HgN/A
2:00 PM75 °FPassing clouds.6 mph47%30.18 "HgN/A
1:30 PM77 °FSunny.7 mph47%30.21 "Hg10 mi
1:00 PM79 °FPassing clouds.6 mph39%30.21 "HgN/A
12:30 PM79 °FPassing clouds.5 mph37%30.21 "HgN/A
12:00 PM81 °FSunny.5 mph37%30.21 "Hg10 mi
11:30 AM81 °FSunny.3 mph42%30.21 "Hg10 mi
11:00 AM79 °FSunny.2 mph45%30.24 "Hg10 mi
10:30 AM77 °FPassing clouds.3 mph47%30.21 "HgN/A
10:00 AM73 °FPassing clouds.5 mph53%30.21 "HgN/A
9:30 AM72 °FSunny.6 mph61%30.21 "Hg10 mi
9:00 AM64 °FSunny.2 mph83%30.21 "Hg10 mi
8:30 AM66 °FSunny.No wind73%30.21 "Hg10 mi
8:00 AM61 °FPassing clouds.3 mph83%30.21 "HgN/A
7:30 AM57 °FPassing clouds.3 mph94%30.21 "HgN/A
7:00 AM61 °FPassing clouds.5 mph83%30.21 "HgN/A
6:30 AM57 °FClear.No wind100%30.18 "Hg10 mi
6:00 AM57 °FClear.No wind94%30.18 "Hg10 mi
5:30 AM59 °FClear.No wind88%30.18 "Hg10 mi
5:00 AM59 °FClear.No wind94%30.18 "Hg10 mi
4:30 AM61 °FClear.2 mph83%30.18 "Hg10 mi
4:00 AM61 °FClear.5 mph83%30.18 "Hg10 mi
3:30 AM64 °FClear.2 mph78%30.21 "Hg10 mi
3:00 AM68 °FClear.No wind69%30.21 "Hg10 mi
2:30 AM64 °FClear.2 mph83%30.21 "Hg10 mi
2:00 AM66 °FClear.2 mph78%30.21 "Hg10 mi
1:30 AM68 °FPassing clouds.6 mph73%30.21 "HgN/A
1:00 AM66 °FClear.No wind83%30.21 "Hg10 mi
12:30 AM63 °FClear.No wind88%30.21 "Hg10 mi
12:00 AM64 °FPassing clouds.3 mph83%30.21 "HgN/A
11:30 PM
Wed, Sep 28
63 °FClear.No wind88%30.21 "Hg10 mi
11:00 PM63 °FClear.No wind88%30.21 "Hg10 mi
10:30 PM64 °FClear.1 mph83%30.21 "Hg10 mi
10:00 PM63 °FClear.No wind83%30.21 "Hg10 mi
9:30 PM66 °FClear.1 mph78%30.21 "Hg10 mi
9:00 PM66 °FClear.No wind73%30.21 "Hg10 mi
8:30 PM66 °FClear.2 mph73%30.18 "Hg10 mi
8:00 PM70 °FClear.5 mph64%30.18 "Hg10 mi
7:30 PM72 °FClear.8 mph61%30.18 "Hg10 mi
7:00 PM73 °FSunny.10 mph61%30.18 "Hg10 mi
Weather by CustomWeather, © 2016

See weather overviewHow to use our weather pages